When you browse on this site, cookies collect data to enhance your experience and personalize the content and advertising you see.
Visit our Privacy Policy to learn more. By continuing to use the site, you agree to this use of cookies and data.

Météo par heure à Acuitzio del Canje

Ce jour, 11 Juillet, Samedi

Heure Température Précipitation Vent Pression Humidité
00:00 +14°C° 0.1 mm 2 m/s 593 mmHg 87%
01:00 +14°C° 0.1 mm 2 m/s 592 mmHg 88%
02:00 +13°C° 0.1 mm 2 m/s 592 mmHg 89%
03:00 +13°C° 0 mm 2 m/s 592 mmHg 89%
04:00 +13°C° 0 mm 1 m/s 592 mmHg 88%
05:00 +13°C° 0 mm 1 m/s 593 mmHg 88%
06:00 +15°C° 0 mm 1 m/s 593 mmHg 82%
07:00 +18°C° 0 mm 1 m/s 594 mmHg 77%
08:00 +20°C° 0 mm 1 m/s 595 mmHg 72%
09:00 +22°C° 0 mm 1 m/s 596 mmHg 65%
10:00 +23°C° 0 mm 1 m/s 596 mmHg 59%
11:00 +25°C° 0 mm 1 m/s 597 mmHg 52%
12:00 +25°C° 0.1 mm 1 m/s 596 mmHg 52%
13:00 +26°C° 0.1 mm 1 m/s 596 mmHg 52%
14:00 +26°C° 0.1 mm 1 m/s 596 mmHg 52%
15:00 +24°C° 1.3 mm 1 m/s 594 mmHg 65%
16:00 +21°C° 1.3 mm 1 m/s 593 mmHg 79%
17:00 +19°C° 1.3 mm 1 m/s 592 mmHg 92%
18:00 +18°C° 1.3 mm 1 m/s 592 mmHg 93%
19:00 +16°C° 1.3 mm 1 m/s 593 mmHg 94%
20:00 +16°C° 1.3 mm 1 m/s 593 mmHg 94%
21:00 +16°C° 0.9 mm 1 m/s 593 mmHg 94%
22:00 +16°C° 0.9 mm 1 m/s 594 mmHg 94%
23:00 +15°C° 0.9 mm 0 m/s 594 mmHg 93%

Demain, 12 Juillet, Dimanche

Heure Température Précipitation Vent Pression Humidité
00:00 +14°C° 1 mm 0 m/s 594 mmHg 95%
01:00 +15°C° 1 mm 1 m/s 594 mmHg 96%
02:00 +15°C° 1 mm 1 m/s 593 mmHg 98%
03:00 +15°C° 0.2 mm 1 m/s 593 mmHg 97%
04:00 +14°C° 0.2 mm 0 m/s 593 mmHg 96%
05:00 +13°C° 0.2 mm 0 m/s 593 mmHg 96%
06:00 +15°C° 0.1 mm 0 m/s 594 mmHg 91%
07:00 +17°C° 0.1 mm 0 m/s 595 mmHg 87%
08:00 +18°C° 0.1 mm 0 m/s 596 mmHg 82%
09:00 +21°C° 0.6 mm 1 m/s 596 mmHg 78%
10:00 +22°C° 0.6 mm 1 m/s 596 mmHg 73%
11:00 +23°C° 0.6 mm 2 m/s 596 mmHg 69%
12:00 +23°C° 0.5 mm 2 m/s 596 mmHg 65%
13:00 +24°C° 0.5 mm 2 m/s 595 mmHg 61%
14:00 +24°C° 0.5 mm 2 m/s 595 mmHg 57%
15:00 +23°C° 0.3 mm 1 m/s 594 mmHg 62%
16:00 +23°C° 0.3 mm 1 m/s 594 mmHg 68%
17:00 +22°C° 0.3 mm 1 m/s 593 mmHg 73%
18:00 +20°C° 0.5 mm 1 m/s 593 mmHg 79%
19:00 +18°C° 0.5 mm 1 m/s 593 mmHg 85%
20:00 +15°C° 0.5 mm 1 m/s 593 mmHg 91%
21:00 +15°C° 0.1 mm 1 m/s 593 mmHg 90%
22:00 +14°C° 0.1 mm 1 m/s 593 mmHg 90%
23:00 +14°C° 0.1 mm 1 m/s 593 mmHg 90%

Après-demain, 13 Juillet, Lundi

Heure Température Précipitation Vent Pression Humidité
00:00 +14°C° 0 mm 1 m/s 593 mmHg 90%
01:00 +14°C° 0 mm 1 m/s 592 mmHg 91%
02:00 +13°C° 0 mm 1 m/s 592 mmHg 92%
03:00 +13°C° 0 mm 1 m/s 592 mmHg 92%
04:00 +13°C° 0 mm 1 m/s 592 mmHg 92%
05:00 +13°C° 0 mm 1 m/s 592 mmHg 92%
06:00 +14°C° 0 mm 0 m/s 593 mmHg 88%
07:00 +16°C° 0 mm 0 m/s 595 mmHg 83%
08:00 +18°C° 0 mm 0 m/s 596 mmHg 78%
09:00 +22°C° 0.3 mm 1 m/s 596 mmHg 72%
10:00 +23°C° 0.3 mm 1 m/s 597 mmHg 66%
11:00 +24°C° 0.3 mm 1 m/s 597 mmHg 60%
12:00 +24°C° 0.4 mm 1 m/s 596 mmHg 61%
13:00 +24°C° 0.4 mm 1 m/s 596 mmHg 61%
14:00 +24°C° 0.4 mm 1 m/s 595 mmHg 62%
15:00 +23°C° 0.7 mm 1 m/s 594 mmHg 69%
16:00 +22°C° 0.7 mm 1 m/s 594 mmHg 76%
17:00 +21°C° 0.7 mm 1 m/s 593 mmHg 83%
18:00 +20°C° 0.8 mm 1 m/s 593 mmHg 86%
19:00 +18°C° 0.8 mm 1 m/s 593 mmHg 89%
20:00 +16°C° 0.8 mm 1 m/s 593 mmHg 91%
21:00 +15°C° 0.1 mm 1 m/s 593 mmHg 91%
22:00 +15°C° 0.1 mm 1 m/s 593 mmHg 92%
23:00 +13°C° 0.1 mm 0 m/s 593 mmHg 92%

14 Juillet, Mardi

Heure Température Précipitation Vent Pression Humidité
00:00 +14°C° 0.1 mm 1 m/s 592 mmHg 91%
01:00 +14°C° 0.1 mm 1 m/s 592 mmHg 91%
02:00 +13°C° 0.1 mm 1 m/s 592 mmHg 90%
03:00 +13°C° 0 mm 1 m/s 592 mmHg 89%
04:00 +13°C° 0 mm 1 m/s 592 mmHg 89%
05:00 +13°C° 0 mm 1 m/s 592 mmHg 88%
06:00 +15°C° 0 mm 1 m/s 593 mmHg 84%
07:00 +16°C° 0 mm 0 m/s 594 mmHg 80%
08:00 +19°C° 0 mm 0 m/s 596 mmHg 75%
09:00 +20°C° 0.1 mm 0 m/s 596 mmHg 69%
10:00 +24°C° 0.1 mm 1 m/s 597 mmHg 62%
11:00 +26°C° 0.1 mm 1 m/s 597 mmHg 56%
12:00 +25°C° 0.4 mm 1 m/s 596 mmHg 58%
13:00 +25°C° 0.4 mm 1 m/s 595 mmHg 60%
14:00 +25°C° 0.4 mm 1 m/s 595 mmHg 63%
15:00 +24°C° 0.7 mm 1 m/s 594 mmHg 69%
16:00 +23°C° 0.7 mm 1 m/s 593 mmHg 75%
17:00 +22°C° 0.7 mm 1 m/s 592 mmHg 81%
18:00 +20°C° 0.8 mm 1 m/s 592 mmHg 86%
19:00 +19°C° 0.8 mm 1 m/s 592 mmHg 90%
20:00 +16°C° 0.8 mm 1 m/s 592 mmHg 95%
21:00 +16°C° 0.5 mm 1 m/s 592 mmHg 94%
22:00 +15°C° 0.5 mm 1 m/s 592 mmHg 92%
23:00 +15°C° 0.5 mm 1 m/s 592 mmHg 91%

15 Juillet, Mercredi

Heure Température Précipitation Vent Pression Humidité
00:00 +15°C° 0.4 mm 1 m/s 592 mmHg 90%
01:00 +15°C° 0.4 mm 1 m/s 592 mmHg 89%
02:00 +15°C° 0.4 mm 1 m/s 592 mmHg 89%
03:00 +15°C° 0.3 mm 1 m/s 592 mmHg 89%
04:00 +15°C° 0.3 mm 1 m/s 592 mmHg 89%
05:00 +13°C° 0.3 mm 0 m/s 592 mmHg 89%
06:00 +15°C° 0.2 mm 0 m/s 593 mmHg 87%
07:00 +17°C° 0.2 mm 0 m/s 594 mmHg 85%
08:00 +19°C° 0.2 mm 0 m/s 595 mmHg 82%
09:00 +22°C° 0.6 mm 1 m/s 595 mmHg 77%
10:00 +24°C° 0.6 mm 1 m/s 596 mmHg 72%
11:00 +25°C° 0.6 mm 1 m/s 596 mmHg 67%
12:00 +25°C° 0.9 mm 1 m/s 595 mmHg 70%
13:00 +24°C° 0.9 mm 1 m/s 594 mmHg 72%
14:00 +24°C° 0.9 mm 1 m/s 594 mmHg 74%
15:00 +23°C° 1.5 mm 1 m/s 593 mmHg 80%
16:00 +22°C° 1.5 mm 1 m/s 592 mmHg 85%
17:00 +20°C° 1.5 mm 1 m/s 592 mmHg 91%
18:00 +19°C° 1.7 mm 1 m/s 592 mmHg 92%
19:00 +16°C° 1.7 mm 1 m/s 592 mmHg 93%
20:00 +15°C° 1.7 mm 1 m/s 592 mmHg 95%
21:00 +15°C° 0.3 mm 1 m/s 592 mmHg 94%
22:00 +15°C° 0.3 mm 1 m/s 592 mmHg 93%
23:00 +15°C° 0.3 mm 1 m/s 593 mmHg 92%

16 Juillet, Jeudi

Heure Température Précipitation Vent Pression Humidité
00:00 +14°C° 0 mm 1 m/s 592 mmHg 91%
01:00 +14°C° 0 mm 1 m/s 592 mmHg 90%
02:00 +14°C° 0 mm 1 m/s 592 mmHg 89%
03:00 +14°C° 0 mm 1 m/s 592 mmHg 89%
04:00 +13°C° 0 mm 1 m/s 592 mmHg 89%
05:00 +13°C° 0 mm 1 m/s 592 mmHg 89%
06:00 +16°C° 0 mm 1 m/s 593 mmHg 85%
07:00 +17°C° 0 mm 0 m/s 594 mmHg 81%
08:00 +19°C° 0 mm 0 m/s 596 mmHg 76%
09:00 +22°C° 0.1 mm 1 m/s 596 mmHg 69%
10:00 +24°C° 0.1 mm 1 m/s 596 mmHg 63%
11:00 +25°C° 0.1 mm 2 m/s 597 mmHg 56%
12:00 +25°C° 0.4 mm 2 m/s 596 mmHg 60%
13:00 +24°C° 0.4 mm 2 m/s 595 mmHg 65%
14:00 +24°C° 0.4 mm 1 m/s 595 mmHg 69%
15:00 +23°C° 1.5 mm 1 m/s 594 mmHg 75%
16:00 +22°C° 1.5 mm 1 m/s 593 mmHg 80%
17:00 +21°C° 1.5 mm 1 m/s 593 mmHg 85%
18:00 +20°C° 1.1 mm 1 m/s 593 mmHg 88%
19:00 +18°C° 1.1 mm 1 m/s 593 mmHg 91%
20:00 +16°C° 1.1 mm 1 m/s 593 mmHg 94%
21:00 +15°C° 1.9 mm 1 m/s 593 mmHg 94%
22:00 +15°C° 1.9 mm 1 m/s 593 mmHg 95%
23:00 +14°C° 1.9 mm 1 m/s 594 mmHg 95%
Voir plus